Pendleton, OR

5:15 AM PST on February 07, 2016 (GMT -0800)
Eastern Oreg Regional At Pendleton

Weather History for KPDT - October, 2013

Change the Weather History Date:

Wednesday, October 9, 2013

  Actual Average Record
Temperature  
Mean Temperature 46 °F 54 °F  
Max Temperature 54 °F 67 °F 90 °F (1934)
Min Temperature 38 °F 42 °F 23 °F (1916)
Degree Days  
Heating Degree Days 19 11  
Month to date heating degree days 133 82  
Since 1 July heating degree days 239 216  
Cooling Degree Days 0 0  
Month to date cooling degree days 0 0  
Year to date cooling degree days 831 634  
Moisture  
Dew Point 38 °F    
Average Humidity 77    
Maximum Humidity 100    
Minimum Humidity 54    
Precipitation  
Precipitation 0.00 in 0.02 in 0.48 in (1955)
Month to date precipitation 0.08 0.21  
Year to date precipitation 7.57 8.87  
Snow  
Snow 0.00 in 0.00 in 0.00 in (2002)
Month to date snowfall 0.0 0.0  
Year to date snowfall 0.2 7.7  
Since 1 July snowfall T 0.0  
Snow Depth 0.00 in    
Sea Level Pressure  
Sea Level Pressure 30.01 in    
Wind  
Wind Speed 5 mph (WNW)    
Max Wind Speed 13 mph    
Max Gust Speed 14 mph    
Visibility 9 miles    
Events      
T = Trace of Precipitation, MM = Missing Value Source: NWS Daily Summary

Daily Weather History Graph

Daily Weather History Graph

Search for Another Location

Airport or City:

Trip Planner

Search our weather history database for the weather conditions in past years. The results will help you decide how hot, cold, wet, or windy it might be!

Date:

Astronomy

Oct. 09, 2013 Rise Set
Actual Time 7:04 AM PDT 6:19 PM PDT
Civil Twilight 6:34 AM PDT 6:49 PM PDT
Nautical Twilight 6:00 AM PDT 7:23 PM PDT
Astronomical Twilight 5:25 AM PDT 7:58 PM PDT
Moon 12:16 PM PDT (10/9) 9:47 PM PDT (10/9)
Length of Visible Light 12h 14m
Length of Day
11h 15m
Waxing Crescent, 26% of the Moon is Illuminated
Oct 9
Waxing Crescent
Oct 11
First Quarter
Oct 18
Full
Oct 26
Last Quarter
Nov 3
New

Hourly Weather History & Observations

Time (PDT) Temp. Windchill Dew Point Humidity Pressure Visibility Wind Dir Wind Speed Gust Speed Precip Events Conditions
12:53 AM 43.0 °F 41.3 °F 39.0 °F 86% 29.97 in 10.0 mi South 3.5 mph - N/A   Mostly Cloudy
1:53 AM 43.0 °F 40.3 °F 39.9 °F 89% 29.99 in 10.0 mi South 4.6 mph - N/A   Overcast
2:53 AM 44.1 °F - 39.0 °F 82% 29.99 in 10.0 mi Calm Calm - N/A   Overcast
3:53 AM 39.9 °F 36.7 °F 37.0 °F 89% 30.01 in 10.0 mi West 4.6 mph - N/A   Mostly Cloudy
4:38 AM 39.0 °F 36.8 °F 37.0 °F 93% 30.02 in 10.0 mi NW 3.5 mph - N/A   Overcast
4:53 AM 39.9 °F 37.8 °F 37.9 °F 93% 30.02 in 10.0 mi NNW 3.5 mph - N/A   Overcast
5:53 AM 39.0 °F 34.8 °F 37.9 °F 96% 30.04 in 10.0 mi NW 5.8 mph - N/A   Overcast
6:53 AM 39.9 °F 35.8 °F 37.9 °F 93% 30.05 in 9.0 mi NW 5.8 mph - N/A   Overcast
7:53 AM 39.9 °F 34.5 °F 39.0 °F 97% 30.06 in 3.0 mi NW 8.1 mph - N/A   Overcast
8:13 AM 39.9 °F 35.8 °F 39.0 °F 97% 30.06 in 2.5 mi NW 5.8 mph - N/A   Overcast
8:20 AM 41.0 °F 37.1 °F 39.9 °F 96% 30.06 in 3.0 mi NW 5.8 mph - N/A   Overcast
8:53 AM 41.0 °F 34.7 °F 39.9 °F 96% 30.07 in 2.0 mi WNW 10.4 mph - N/A   Overcast
9:00 AM 41.0 °F 34.7 °F 39.9 °F 96% 30.07 in 2.0 mi WNW 10.4 mph - N/A   Overcast
9:53 AM 41.0 °F 36.4 °F 39.9 °F 96% 30.07 in 3.0 mi NW 6.9 mph - N/A   Overcast
10:25 AM 43.0 °F 37.7 °F 39.9 °F 89% 30.06 in 8.0 mi NW 9.2 mph - N/A   Overcast
10:49 AM 44.6 °F 39.2 °F 39.2 °F 81% 30.07 in 10.0 mi NW 10.4 mph - N/A   Overcast
10:53 AM 44.1 °F 39.5 °F 39.9 °F 85% 30.07 in 10.0 mi NW 8.1 mph - N/A   Overcast
11:43 AM 48.0 °F - 39.9 °F 74% 30.06 in 10.0 mi Variable 4.6 mph - N/A   Mostly Cloudy
11:53 AM 48.0 °F - 39.9 °F 74% 30.06 in 10.0 mi NW 6.9 mph - N/A   Mostly Cloudy
12:46 PM 50.0 °F - 39.9 °F 68% 30.04 in 8.0 mi NW 5.8 mph - N/A   Mostly Cloudy
12:53 PM 48.0 °F - 39.0 °F 71% 30.04 in 5.0 mi Variable 4.6 mph - N/A   Haze
1:44 PM 50.0 °F - 39.0 °F 66% 30.02 in 10.0 mi South 4.6 mph - N/A   Scattered Clouds
1:53 PM 50.0 °F - 39.0 °F 66% 30.01 in 10.0 mi Calm Calm - N/A   Mostly Cloudy
2:00 PM 50.0 °F - 39.0 °F 66% 30.01 in 10.0 mi WNW 3.5 mph - N/A   Mostly Cloudy
2:53 PM 54.0 °F - 39.0 °F 57% 30.00 in 10.0 mi Variable 5.8 mph - N/A   Mostly Cloudy
3:04 PM 53.1 °F - 37.9 °F 57% 30.00 in 10.0 mi Variable 3.5 mph - N/A   Mostly Cloudy
3:18 PM 52.0 °F - 37.9 °F 59% 30.00 in 10.0 mi WNW 6.9 mph - N/A   Mostly Cloudy
3:53 PM 53.1 °F - 37.9 °F 57% 29.99 in 10.0 mi WSW 6.9 mph - N/A   Mostly Cloudy
4:53 PM 52.0 °F - 37.0 °F 57% 29.98 in 10.0 mi WSW 5.8 mph - N/A   Partly Cloudy
5:53 PM 50.0 °F - 37.0 °F 61% 29.97 in 10.0 mi WSW 5.8 mph - N/A   Partly Cloudy
6:53 PM 48.0 °F - 37.0 °F 66% 29.96 in 10.0 mi West 4.6 mph - N/A   Clear
7:53 PM 46.0 °F - 37.0 °F 71% 29.96 in 10.0 mi Calm Calm - N/A   Clear
8:53 PM 44.1 °F 41.5 °F 37.0 °F 76% 29.96 in 10.0 mi SSE 4.6 mph - N/A   Clear
9:53 PM 42.1 °F 37.1 °F 37.0 °F 82% 29.96 in 10.0 mi SE 8.1 mph - N/A   Clear
10:53 PM 41.0 °F 38.0 °F 36.0 °F 82% 29.94 in 10.0 mi SE 4.6 mph - N/A   Clear
11:53 PM 42.1 °F 39.2 °F 36.0 °F 79% 29.92 in 10.0 mi South 4.6 mph - N/A   Clear